Temperature
27 26 25 24 23 22 21 21 21 20 20 20 20 20 19 19 19 19 19 19 19 19 19 19 19 19 19 19 19 19 19 19 19 19 19 19 19 19 19 19 18 18 18
27 26 25 24 23 22 21 21 21 20 20 20 20 20 20 19 19 19 19 19 19 19 19 19 19 19 19 19 19 19 19 19 19 19 18 18 19 19 19 19 18 18 18
27 26 25 24 23 22 22 21 21 20 20 20 20 20 19 19 19 19 19 19 19 19 19 19 19 19 19 19 19 19 19 18 19 19 19 19 18 18 18 19 18 18 18
27 26 25 24 23 22 22 21 21 20 20 20 20 20 20 19 19 19 19 19 19 19 19 19 19 19 19 19 19 18 18 18 18 19 19 19 19 18 18 18 18 18 18
28 27 26 25 24 23 22 21 21 21 20 20 20 20 20 20 20 19 19 19 19 19 19 19 19 19 19 19 19 18 18 18 18 18 18 18 19 19 18 18 18 18 18
28 27 26 25 24 23 22 21 21 21 20 20 20 20 20 20 19 19 19 19 19 19 19 19 19 19 19 19 19 19 18 18 18 18 18 18 18 18 18 18 18 18 18
28 27 26 24 24 23 22 22 21 21 21 20 20 20 20 20 19 19 19 19 19 19 19 19 19 19 19 19 18 18 18 18 18 18 18 18 18 18 18 18 18 17 17
28 27 26 25 24 23 23 22 21 21 21 20 20 20 20 20 19 19 19 19 19 19 19 19 19 19 19 18 18 18 18 18 18 18 18 18 18 18 18 18 17 17 17
28 27 26 25 24 23 23 22 22 21 21 21 20 20 20 20 19 19 19 19 19 19 19 19 19 19 18 18 18 18 18 18 18 18 18 17 18 18 17 17 17 17 17
28 27 26 25 24 24 23 22 21 21 21 20 20 20 20 20 19 19 19 19 19 19 19 19 18 18 18 18 18 18 18 18 18 17 17 17 17 17 17 17 17 17 17
28 27 26 26 25 24 23 22 21 21 21 20 20 20 20 20 19 19 19 19 19 19 19 18 18 18 18 18 18 18 18 17 17 17 17 17 17 17 17 17 16 16 16
28 27 26 25 24 24 23 22 21 21 21 20 20 20 19 19 19 19 19 19 19 19 18 18 18 18 18 18 17 17 17 17 17 17 17 17 16 16 16 16 16 16 16
27 26 25 25 24 23 23 22 21 21 20 20 20 19 19 19 19 19 19 19 19 18 18 18 18 17 17 17 17 17 17 17 17 16 16 16 16 16 16 16 16 16 16
26 25 25 24 23 23 22 22 21 21 20 20 19 19 19 19 19 19 19 19 18 18 18 18 17 17 17 17 17 17 16 16 16 16 16 16 16 16 15 15 15 15 15
25 25 24 23 22 22 22 21 21 21 20 20 19 19 19 19 19 18 18 18 18 18 17 17 17 17 17 17 17 16 16 16 16 16 15 15 15 15 15 15 15 15 15
25 24 24 23 22 22 21 21 21 20 20 20 19 19 19 19 18 18 18 18 18 17 17 17 17 17 16 16 16 16 16 16 15 15 15 15 15 15 15 15 15 15 14
25 24 24 23 22 21 21 20 20 20 20 19 19 19 19 18 18 18 18 18 17 17 17 17 17 17 16 16 16 16 16 15 15 15 15 15 15 15 15 15 14 14 14
24 24 23 22 22 21 21 21 20 20 20 19 19 19 18 18 18 18 18 17 17 17 17 17 17 16 16 16 16 16 16 15 15 15 15 15 15 15 15 14 14 14 14
24 23 23 22 22 21 20 20 20 19 19 19 19 18 18 18 18 17 17 17 17 17 16 16 16 16 16 16 16 16 15 15 15 15 15 15 15 14 14 14 14 14 14
23 22 22 22 21 21 20 20 19 19 19 18 18 18 18 18 18 17 17 17 17 16 16 16 16 16 16 16 15 15 15 15 15 15 14 14 14 14 14 14 14 13 13
22 22 21 21 20 20 20 19 19 18 18 18 18 18 18 18 17 17 17 16 16 16 16 16 16 16 16 15 15 15 15 14 14 14 14 14 14 14 14 14 13 13 13
21 21 21 20 20 19 19 19 18 18 18 18 17 17 17 17 17 17 16 16 16 16 16 16 16 15 15 15 15 15 14 14 14 14 14 14 14 14 14 13 13 13 13
20 20 20 19 19 19 19 18 18 18 17 17 17 17 16 16 16 16 16 16 16 16 15 15 15 15 15 15 15 14 14 14 14 13 13 13 13 13 13 13 13 13 13
19 19 19 18 18 18 18 18 17 17 17 16 16 16 16 16 16 16 16 16 16 15 15 15 15 15 14 14 14 14 14 13 13 13 13 13 13 13 13 13 13 12 12
18 18 18 17 17 17 17 17 17 17 16 16 16 16 16 16 16 16 16 15 15 15 15 15 15 14 14 14 14 14 13 13 13 13 13 13 13 13 13 13 12 12 12
18 17 17 17 17 17 17 17 17 16 16 15 15 15 15 15 15 15 15 15 15 15 15 15 15 14 14 14 13 13 13 13 13 13 12 12 12 12 12 12 12 12 12
Wind_Speed
12 12 11 12 12 11 9 8 7 7 5 4 4 3 3 3 3 3 4 4 3 2 1 0 0 0 1 0 0 0 1 1 1 0 0 2 2 3 3 3 3 3 5
13 12 12 11 12 11 10 9 8 7 6 5 3 3 4 3 3 2 3 3 3 2 1 1 0 0 1 1 0 0 1 1 0 0 1 0 0 0 2 3 3 3 4
14 13 12 11 12 12 11 9 8 7 7 7 5 4 3 2 2 3 3 2 2 2 1 1 1 0 1 1 1 1 1 1 1 1 1 1 0 1 0 1 2 2 2
14 14 13 12 12 13 12 10 9 8 7 7 6 6 5 4 3 3 3 3 3 2 2 1 1 1 0 0 1 0 1 1 2 1 1 1 0 1 0 1 1 2 2
14 14 13 12 12 13 13 11 10 8 7 6 6 5 4 4 3 3 4 3 3 3 2 2 2 1 0 0 1 1 1 1 2 2 1 1 1 2 1 1 0 1 1
12 12 12 11 11 12 12 12 11 9 8 8 7 5 4 4 4 4 4 3 3 3 3 3 2 1 0 0 0 1 1 1 2 2 2 2 2 1 1 1 1 1 1
12 12 12 12 10 11 12 12 12 10 9 9 7 7 5 5 4 4 3 3 3 3 2 3 2 2 1 1 1 1 1 1 2 2 2 2 2 2 1 1 1 1 0
11 11 12 12 11 11 11 12 12 10 9 8 6 6 6 5 4 4 3 3 2 2 3 3 3 2 2 1 1 1 1 1 2 3 2 2 2 2 1 0 0 1 1
11 11 11 12 12 12 12 12 12 11 10 9 7 6 5 4 4 4 3 2 2 2 3 3 3 2 2 1 1 1 1 1 1 2 1 2 2 2 2 0 0 1 1
10 10 10 10 11 11 11 11 11 10 9 9 8 7 6 4 3 3 2 2 1 1 2 3 3 3 2 1 1 1 0 0 1 1 1 2 2 2 1 1 1 1 1
9 8 8 9 11 12 12 11 10 9 9 8 7 6 6 6 5 4 3 2 2 2 2 2 2 2 2 2 2 2 1 1 1 2 1 1 2 2 2 1 1 1 0
6 6 8 8 8 10 11 11 10 10 8 8 7 6 6 6 6 5 4 3 3 2 3 3 3 3 3 2 2 2 2 1 2 1 1 1 1 1 2 2 1 1 1
6 6 6 7 6 7 8 9 10 10 9 9 8 7 6 6 5 5 4 4 3 3 2 2 2 3 2 2 2 2 2 2 1 1 1 1 1 1 1 2 2 2 2
5 5 5 5 5 5 6 6 7 8 9 9 8 7 6 5 5 4 4 4 4 3 3 3 3 3 3 2 3 2 2 2 2 2 2 2 1 0 2 2 2 3 2
5 5 5 5 5 5 5 5 5 5 6 7 8 7 6 5 5 5 4 4 4 4 3 3 3 3 3 3 3 4 4 3 3 3 2 2 1 1 1 2 2 2 2
6 6 6 6 6 5 5 5 4 4 5 5 6 6 6 6 5 5 5 4 3 3 3 3 3 4 4 2 2 3 3 3 3 3 2 2 3 2 2 2 3 3 3
5 6 7 7 7 6 5 5 5 5 5 5 5 5 5 5 5 5 4 4 4 3 3 3 2 2 2 2 2 3 4 4 4 3 3 4 3 2 2 4 4 4 4
5 5 6 7 7 7 6 5 6 5 5 5 5 4 4 4 4 3 3 4 3 3 3 2 3 2 2 3 3 4 4 4 4 4 4 3 3 3 2 3 2 3 3
2 4 5 7 7 7 7 6 6 5 5 5 5 5 4 4 4 4 4 3 3 3 3 2 3 2 2 3 3 4 4 4 4 4 3 3 3 1 1 2 3 3 3
2 2 3 4 5 6 6 6 6 5 5 4 4 4 4 4 4 4 3 3 3 3 3 3 2 2 2 4 4 3 3 3 3 2 2 2 2 1 1 2 3 3 3
3 2 2 3 3 5 5 6 5 5 4 3 3 3 3 4 4 4 4 4 4 4 4 3 3 3 3 5 5 3 2 3 3 2 1 1 2 1 2 3 3 4 4
3 3 3 3 3 3 4 5 4 3 3 3 3 3 3 4 4 3 3 4 5 5 5 4 4 3 3 4 5 6 5 3 3 3 1 1 2 2 4 4 5 6 5
3 3 3 3 3 3 3 3 3 3 3 3 3 3 3 2 2 3 4 4 4 4 4 3 3 3 3 4 5 4 4 4 3 2 2 1 3 4 4 5 6 5 4
2 2 2 2 2 2 2 2 3 3 3 3 2 2 3 3 2 2 3 3 2 2 1 2 2 2 2 2 2 2 2 2 2 1 1 3 5 5 4 3 4 4 4
1 2 2 2 2 2 1 2 2 3 3 3 2 3 3 2 2 2 1 2 1 2 3 2 2 2 2 3 4 3 2 1 1 1 2 3 3 2 3 3 3 3 3
1 2 2 1 1 2 1 2 2 2 3 4 3 3 3 3 3 3 1 3 1 2 3 3 2 2 3 6 4 3 2 2 2 2 4 4 4 3 3 3 3 3 2
Wind_Direction
159 151 152 150 147 146 149 154 155 154 152 154 162 156 153 156 153 153 135 134 140 143 151 317 107 251 134 172 195 89 314 279 214 295 218 205 192 187 180 179 174 155 161
158 154 158 158 156 155 156 161 165 162 159 160 164 159 158 162 163 144 127 144 154 163 173 198 221 287 110 77 15 343 290 274 188 248 270 239 165 220 178 156 161 161 154
163 162 166 164 161 161 164 165 161 166 167 165 166 159 151 162 148 144 141 161 160 160 254 150 214 286 168 126 190 232 256 286 295 275 293 308 63 338 206 150 125 132 143
165 165 168 169 168 166 163 158 160 165 168 171 173 173 166 166 169 160 157 174 173 179 192 151 179 277 37 77 265 120 271 281 296 300 286 243 143 202 216 342 108 131 139
165 167 170 169 169 166 162 159 158 163 166 172 176 182 170 171 156 154 162 177 175 175 175 159 180 186 145 68 355 20 351 331 311 302 294 279 247 224 195 229 283 78 120
161 163 163 161 167 165 162 159 159 164 169 175 179 177 179 177 158 169 175 191 185 170 179 166 170 178 197 131 251 304 307 318 313 308 306 297 294 271 210 211 219 196 222
160 162 160 164 170 168 163 159 160 165 172 176 179 173 183 185 176 181 190 204 192 176 175 175 165 182 203 206 191 238 295 286 293 294 303 309 313 313 292 220 252 271 226
160 162 162 163 167 168 161 158 158 162 168 170 175 177 189 192 188 201 205 199 200 170 163 170 167 184 210 225 223 237 245 281 282 289 308 308 312 313 315 246 213 287 320
154 162 165 165 166 165 163 161 156 162 168 170 170 176 182 186 191 194 202 195 195 189 163 173 171 179 191 223 236 247 271 304 283 291 300 298 308 312 321 7 227 237 278
153 159 162 159 160 162 160 154 155 163 168 170 177 178 173 181 193 202 182 196 178 186 172 179 178 177 184 212 214 254 265 315 299 292 323 311 307 315 337 345 310 307 216
154 153 153 154 157 157 158 159 159 163 171 172 171 166 174 181 180 183 180 178 189 181 177 181 183 178 184 198 199 237 225 241 278 285 304 313 329 339 334 344 333 336 2
129 135 140 142 149 156 158 159 162 166 173 170 166 171 173 176 180 179 176 181 188 193 177 180 193 202 199 194 213 242 233 235 262 275 288 294 309 335 339 341 330 323 302
128 129 131 135 141 147 152 158 166 167 172 171 169 172 183 181 183 176 174 177 182 190 184 185 206 222 213 209 223 235 246 236 242 246 255 271 287 327 338 322 323 316 314
128 131 120 118 124 127 135 147 159 162 165 166 170 178 187 178 178 173 174 179 184 192 189 197 215 227 213 222 233 232 242 243 254 267 259 257 256 288 289 287 308 307 306
151 143 136 133 131 131 134 140 151 151 157 162 169 178 178 173 175 175 176 181 193 200 191 205 220 230 225 227 228 234 229 227 235 244 255 254 128 45 304 282 296 294 286
170 162 155 146 144 145 147 152 154 149 151 157 164 167 173 174 180 179 178 182 196 198 203 215 224 234 243 214 199 230 244 243 243 242 242 226 196 208 240 261 271 256 251
175 169 163 155 152 154 157 162 155 153 156 160 161 166 171 171 176 183 176 181 195 202 210 222 231 235 228 191 205 244 247 243 236 234 241 255 247 200 234 250 250 257 255
178 167 166 163 164 163 161 161 160 161 167 165 165 165 174 176 176 181 192 194 196 205 211 213 225 227 229 212 223 244 243 247 241 235 233 234 246 239 256 272 266 260 266
158 161 173 172 165 164 160 162 164 167 169 171 176 176 181 188 191 197 204 198 195 209 213 201 205 208 214 203 221 239 253 247 248 238 229 218 219 178 262 261 268 275 274
105 139 150 152 153 154 159 165 170 173 182 187 185 184 186 196 201 196 194 197 200 206 207 203 200 206 186 181 199 219 263 263 262 244 224 160 149 153 290 275 278 279 284
101 105 112 138 148 152 161 168 168 182 182 172 178 184 188 200 200 197 199 207 208 209 210 211 205 199 189 177 185 196 258 290 294 279 251 169 151 193 252 270 267 267 283
87 83 78 84 117 142 156 164 166 169 162 170 179 186 198 221 207 193 206 217 213 216 214 208 208 190 173 171 185 198 220 271 296 296 299 184 200 242 257 258 257 268 280
66 81 86 91 100 118 135 157 151 148 157 173 189 197 203 213 196 198 216 225 220 225 223 205 203 185 155 144 151 185 220 247 268 314 1 282 246 262 257 245 245 253 257
60 76 101 115 103 101 118 127 136 148 161 176 193 198 206 205 189 219 239 239 232 225 231 219 219 199 148 135 136 162 193 219 242 291 313 283 262 254 253 252 244 239 248
70 92 110 115 116 114 142 139 129 144 171 181 202 217 225 206 193 211 262 250 220 216 219 241 235 221 205 176 171 184 211 228 232 271 262 262 255 237 232 242 243 239 245
102 103 118 129 158 156 129 121 142 156 191 201 213 227 223 207 208 199 203 25 45 144 167 183 186 182 161 159 168 183 204 225 213 228 253 254 251 246 242 242 238 243 249
Height
1496 1499 1502 1505 1507 1509 1511 1513 1515 1516 1519 1520 1522 1523 1525 1527 1528 1528 1529 1530 1530 1531 1531 1532 1532 1532 1533 1533 1533 1533 1533 1533 1533 1533 1533 1534 1534 1534 1535 1535 1536 1536 1536
1493 1497 1501 1503 1505 1507 1509 1511 1513 1515 1517 1519 1521 1523 1524 1526 1527 1528 1528 1529 1530 1530 1531 1531 1531 1532 1532 1532 1532 1532 1532 1533 1533 1534 1533 1534 1535 1534 1535 1535 1535 1535 1535
1490 1495 1498 1501 1503 1506 1508 1510 1512 1514 1516 1518 1520 1522 1524 1525 1527 1527 1528 1528 1529 1530 1530 1530 1531 1531 1531 1531 1531 1531 1532 1532 1533 1533 1534 1534 1534 1534 1535 1535 1535 1535 1535
1487 1491 1496 1499 1501 1504 1506 1508 1510 1513 1515 1517 1519 1521 1522 1524 1525 1526 1527 1528 1528 1529 1529 1530 1530 1530 1530 1531 1531 1531 1531 1532 1532 1533 1533 1533 1533 1534 1534 1535 1535 1534 1534
1484 1489 1493 1496 1499 1502 1504 1506 1508 1511 1513 1515 1518 1520 1521 1523 1524 1525 1526 1527 1528 1528 1528 1529 1529 1529 1530 1530 1530 1530 1530 1530 1531 1531 1532 1532 1533 1533 1533 1533 1533 1534 1534
1481 1486 1490 1494 1497 1500 1502 1504 1507 1509 1512 1514 1516 1518 1520 1522 1523 1524 1526 1527 1527 1527 1527 1528 1528 1528 1528 1529 1529 1529 1529 1529 1530 1530 1531 1531 1531 1531 1532 1531 1531 1532 1532
1478 1483 1487 1491 1495 1498 1500 1502 1504 1507 1510 1512 1514 1517 1519 1520 1522 1523 1524 1525 1526 1526 1526 1527 1527 1527 1527 1528 1528 1528 1528 1528 1528 1529 1529 1529 1530 1530 1530 1530 1530 1530 1530
1476 1481 1485 1488 1492 1495 1498 1500 1503 1505 1508 1510 1512 1515 1517 1518 1520 1521 1523 1524 1524 1525 1525 1525 1526 1526 1526 1526 1527 1527 1527 1527 1527 1527 1527 1527 1528 1528 1528 1528 1528 1528 1528
1474 1479 1482 1486 1490 1493 1496 1498 1501 1504 1506 1508 1511 1513 1515 1517 1518 1520 1521 1522 1523 1523 1524 1524 1524 1524 1525 1525 1525 1525 1525 1526 1525 1525 1525 1525 1525 1526 1526 1526 1526 1527 1526
1474 1477 1481 1485 1488 1491 1494 1497 1499 1502 1505 1507 1509 1511 1513 1515 1516 1518 1519 1520 1520 1521 1522 1522 1523 1523 1523 1523 1524 1523 1524 1524 1524 1524 1524 1523 1524 1524 1524 1524 1524 1524 1524
1473 1477 1481 1484 1487 1490 1493 1495 1498 1501 1503 1506 1508 1510 1511 1513 1514 1515 1517 1517 1518 1519 1519 1520 1521 1521 1521 1521 1522 1522 1522 1522 1522 1522 1522 1522 1522 1522 1522 1522 1522 1522 1522
1472 1476 1480 1483 1486 1488 1491 1494 1497 1499 1502 1504 1506 1508 1509 1511 1512 1513 1514 1515 1516 1516 1517 1518 1518 1519 1519 1519 1520 1520 1520 1520 1520 1520 1520 1520 1520 1520 1520 1520 1520 1520 1520
1473 1476 1480 1483 1485 1487 1490 1492 1495 1497 1499 1501 1504 1506 1507 1508 1510 1511 1512 1513 1514 1514 1515 1516 1516 1517 1517 1517 1518 1518 1518 1518 1517 1517 1517 1517 1518 1518 1518 1517 1517 1517 1518
1474 1478 1480 1482 1484 1486 1488 1491 1494 1496 1498 1499 1502 1503 1505 1506 1507 1509 1510 1511 1511 1512 1513 1513 1514 1515 1515 1515 1515 1516 1516 1516 1516 1516 1515 1515 1515 1515 1515 1515 1515 1515 1515
1475 1477 1480 1482 1483 1485 1487 1489 1492 1494 1496 1498 1500 1501 1502 1504 1505 1506 1507 1508 1509 1510 1511 1511 1511 1512 1512 1512 1513 1513 1513 1513 1513 1513 1513 1513 1513 1512 1512 1512 1511 1511 1512
1474 1476 1479 1481 1483 1484 1486 1488 1490 1492 1494 1496 1498 1499 1500 1501 1502 1503 1504 1506 1507 1508 1508 1508 1509 1509 1510 1510 1510 1510 1511 1511 1511 1511 1511 1511 1510 1510 1510 1509 1509 1508 1509
1472 1475 1477 1479 1481 1483 1484 1487 1489 1491 1492 1494 1495 1497 1498 1499 1500 1501 1502 1503 1504 1505 1505 1505 1506 1506 1507 1507 1507 1507 1507 1508 1508 1508 1508 1508 1508 1507 1507 1507 1506 1506 1506
1471 1473 1475 1477 1479 1481 1483 1485 1487 1489 1490 1492 1493 1495 1496 1497 1498 1498 1499 1500 1501 1502 1502 1502 1503 1503 1504 1504 1504 1504 1504 1505 1505 1505 1505 1505 1505 1504 1504 1504 1503 1502 1502
1469 1471 1473 1475 1477 1479 1481 1483 1485 1486 1488 1489 1490 1492 1493 1494 1495 1496 1497 1498 1498 1499 1499 1499 1500 1500 1501 1501 1501 1502 1501 1502 1502 1502 1502 1502 1502 1502 1502 1501 1500 1499 1499
1468 1469 1471 1473 1474 1476 1478 1480 1482 1484 1485 1487 1488 1489 1490 1491 1492 1493 1494 1495 1495 1496 1496 1496 1497 1497 1497 1498 1498 1499 1499 1499 1500 1500 1500 1500 1500 1499 1499 1498 1497 1496 1496
1468 1469 1470 1472 1473 1474 1476 1478 1479 1481 1483 1484 1485 1486 1487 1488 1489 1490 1491 1492 1492 1493 1493 1493 1494 1494 1494 1495 1495 1495 1496 1496 1497 1497 1497 1497 1496 1496 1496 1495 1495 1494 1494
1467 1468 1469 1470 1472 1473 1474 1476 1477 1479 1480 1482 1483 1484 1484 1486 1487 1487 1488 1489 1490 1490 1490 1490 1491 1491 1491 1492 1492 1492 1493 1493 1494 1494 1494 1493 1493 1493 1493 1492 1492 1491 1491
1467 1468 1469 1469 1470 1471 1473 1474 1475 1476 1478 1479 1480 1481 1482 1483 1484 1485 1485 1486 1487 1487 1488 1488 1489 1489 1489 1489 1489 1489 1490 1490 1491 1491 1491 1491 1490 1490 1490 1490 1489 1489 1488
1467 1468 1468 1468 1469 1470 1471 1472 1473 1474 1476 1477 1478 1479 1480 1481 1482 1482 1483 1484 1484 1485 1485 1485 1486 1486 1486 1486 1485 1486 1487 1487 1487 1487 1487 1488 1487 1487 1487 1487 1486 1486 1486
1466 1467 1467 1467 1468 1469 1470 1471 1472 1473 1474 1475 1476 1477 1478 1478 1479 1480 1480 1480 1481 1482 1482 1482 1482 1482 1482 1482 1483 1483 1483 1483 1484 1484 1484 1484 1484 1484 1484 1484 1484 1483 1483
1465 1465 1466 1466 1467 1468 1468 1469 1469 1470 1471 1472 1473 1474 1475 1476 1476 1477 1477 1477 1478 1478 1479 1479 1479 1479 1480 1480 1480 1480 1480 1481 1481 1481 1481 1481 1481 1481 1481 1481 1481 1481 1480